#timestamp,LO_Frequency,Hit,StdDev 
1526378415.5,286047002.5,N
1526378435.4,286047000.1,N
1526378455.2,286046999.8,N
1526378475.0,286047000.7,N
1526378475.9,286047000.7,N
1526378495.8,286047000.6,N
1526378515.6,286047001.1,N
1526378535.4,286047000.7,N
1526378555.3,286047000.6,N
1526378575.1,286047001.5,N
1526378595.9,286047003.2,N
1526378615.7,286047003.2,N
1526378635.5,286047001.3,N
1526378655.4,286047004.1,N
1526378675.2,286047002.9,N
1526378695.0,286047003.0,N
1526378695.9,286047003.0,N
1526378715.8,286047005.7,Y
1526378735.6,286047003.4,P
1526378755.5,286047003.7,P
1526378775.3,286047003.0,P
1526378795.1,286047003.5,Y
1526378815.9,286046999.7,P
1526378835.7,286046999.9,N
1526378855.6,286047001.9,N
1526378875.4,286047001.8,N
1526378895.2,286047003.9,Y
1526378915.1,286047003.1,P
1526378916.0,286047003.1,P
1526378935.8,286047005.9,P
1526378955.6,286047005.7,Y
1526378975.5,286047001.7,P
1526378995.3,286047003.5,P
1526379015.2,286047003.1,P
1526379035.9,286047001.7,N
1526379055.7,286047002.4,N
1526379075.6,286047002.6,Y
1526379095.4,286046998.9,P
1526379115.3,286046996.6,N
1526379135.1,286046998.1,N
1526379136.0,286046998.1,N
1526379155.8,286046999.4,N
1526379175.7,286046996.9,N
1526379195.5,286046996.9,N
1526379215.3,286046995.0,N
1526379235.2,286046996.7,N
1526379255.0,286046996.5,N
1526379255.9,286046996.5,N
1526379275.8,286046999.3,N
1526379295.6,286046994.9,N
1526379315.4,286046995.6,N
1526379335.3,286046993.5,Y
1526379355.1,286046995.5,P
1526379375.8,286046995.8,P
1526379395.7,286046996.2,P
1526379415.5,286046995.8,Y
1526379435.4,286046999.2,P
1526379455.2,286046999.3,N
1526379475.0,286047002.2,N
1526379475.9,286047002.2,N
1526379495.8,286047002.5,N
1526379515.6,286047001.2,N
1526379535.4,286046998.4,N
1526379555.3,286046997.4,N
1526379575.1,286046996.0,N
1526379595.9,286046994.6,N
1526379615.7,286046992.9,N
1526379635.5,286046996.3,N
1526379655.4,286046994.0,N
1526379675.2,286046992.0,N
1526379695.0,286046991.3,N
1526379696.0,286046991.3,N
1526379715.8,286046988.8,Y
1526379735.6,286046991.7,P
1526379755.5,286046995.3,N
1526379775.3,286046997.3,N
1526379795.1,286046995.4,N
1526379815.9,286046997.7,N
1526379835.7,286046995.7,N
1526379855.6,286046993.6,Y
1526379875.4,286046997.6,P
1526379895.2,286046995.4,P
1526379915.1,286046995.9,P
1526379916.0,286046995.9,Y
1526379935.8,286047002.0,P
1526379955.7,286047002.8,N
1526379975.5,286047000.1,N
1526379995.3,286047004.0,N
1526380015.2,286047003.6,N
1526380035.0,286047000.0,N
1526380035.9,286047000.0,N
1526380055.7,286046998.7,N
1526380075.6,286047001.1,N
1526380095.4,286047000.4,N
1526380115.3,286046997.1,N
1526380135.1,286046996.5,N
1526380136.0,286046996.5,N
1526380155.8,286046995.7,N
1526380175.7,286046996.8,N
1526380195.5,286046996.8,N
1526380215.3,286046999.1,N
1526380235.2,286046995.6,N
1526380255.0,286046994.6,N
1526380255.9,286046994.6,N
1526380275.8,286046990.1,Y
1526380295.6,286046993.7,P
1526380315.4,286046998.0,N
1526380335.3,286046999.3,N
1526380355.1,286047001.2,N
1526380375.9,286046996.9,N
1526380395.7,286046999.1,N
1526380415.5,286046998.7,N
1526380435.4,286046996.5,N
1526380455.2,286046999.8,N
1526380475.0,286046997.2,N
1526380475.9,286046997.2,N
1526380495.8,286046997.7,N
1526380515.6,286046995.7,N
1526380535.5,286046996.1,N
1526380555.3,286046995.9,N
1526380575.1,286046997.0,N
1526380595.9,286047002.0,N
1526380615.7,286046998.1,N
1526380635.5,286046998.4,N
1526380655.4,286046998.7,N
1526380675.2,286046997.0,N
1526380695.1,286046999.0,N
1526380696.0,286046999.0,N
1526380715.8,286046997.7,N
1526380735.6,286046997.9,N
1526380755.5,286046999.3,N
1526380775.3,286046997.9,N
1526380795.1,286046995.9,N
1526380815.9,286046995.5,N
1526380835.7,286046997.5,N
1526380855.6,286046996.3,N
1526380875.4,286046991.7,Y
1526380895.2,286046993.3,P
1526380915.1,286046995.8,N
1526380916.0,286046995.8,N
1526380935.8,286046993.3,Y
1526380955.7,286046999.5,P
1526380975.5,286046998.8,N
1526380995.3,286047001.8,N
1526381015.2,286047003.0,N
1526381035.0,286047005.7,N
1526381035.9,286047005.7,N
1526381055.8,286047003.5,N
1526381075.6,286047005.9,N
1526381095.4,286047003.9,N
1526381115.3,286047003.7,N
1526381135.1,286047001.8,N
1526381155.8,286047001.7,N
1526381175.7,286047007.4,N
1526381195.5,286047007.1,N
1526381215.4,286047003.7,N
1526381235.2,286047002.2,N
1526381255.0,286047004.0,N
1526381255.9,286047004.0,N
1526381275.8,286047003.3,N
1526381295.6,286047005.1,N
1526381315.4,286047006.3,N
1526381335.3,286047004.8,N
1526381355.1,286047004.5,N
1526381375.9,286047004.7,N
1526381395.7,286047007.6,N
1526381415.5,286047005.9,N
1526381435.4,286047001.9,N
1526381455.2,286047002.0,N
1526381475.0,286047003.6,N
1526381476.0,286047003.6,N
1526381495.8,286047003.7,N
1526381515.6,286047001.5,N
1526381535.5,286047002.8,N
1526381555.3,286047000.0,N
1526381575.1,286047002.8,N
1526381595.9,286047000.7,N
1526381615.7,286046999.3,N
1526381635.6,286046999.9,N
1526381655.4,286047001.1,N
1526381675.2,286046998.2,N
1526381695.1,286047002.7,N
1526381696.0,286047002.7,N
1526381715.8,286046998.7,N
1526381735.6,286046999.6,N
1526381755.5,286046998.4,N
1526381775.3,286046998.7,N
1526381795.2,286047002.4,N
1526381815.9,286047000.2,N
1526381835.7,286046998.9,N
1526381855.6,286046999.5,N
1526381875.4,286046998.9,N
1526381895.2,286046997.0,N
1526381915.1,286046996.5,N
1526381916.0,286046996.5,N
1526381935.8,286046997.3,N
1526381955.7,286046996.3,N
1526381975.5,286046996.9,N
1526381995.3,286046996.7,N
